FW9097 Weather Reports


Display with metric or nautical units.
time (UTC)temp
F
wind
direction
speed
MPH
gust
MPH
rain 1hr
in
rain 24hr
in
rain mn
in
humidity
%
barometer
mb
20260503223044 84 121 2.0 5.0 0.00 0.00 0.00 41 1011.3
20260503221545 84 56 2.0 6.0 0.00 0.00 0.00 41 1011.5
20260503220054 83 321 0.0 4.0 0.00 0.00 0.00 42 1011.6
20260503214549 82 39 1.0 7.0 0.00 0.00 0.00 43 1011.8
20260503213048 82 0 1.0 6.0 0.00 0.00 0.00 42 1011.8
20260503211547 81 101 1.0 8.0 0.00 0.00 0.00 43 1011.9
20260503210047 81 325 1.0 5.0 0.00 0.00 0.00 43 1012.1
20260503204552 80 333 1.0 5.0 0.00 0.00 0.00 45 1012.4
20260503203054 79 325 1.0 6.0 0.00 0.00 0.00 47 1012.6
20260503201549 79 140 1.0 8.0 0.00 0.00 0.00 48 1012.7
20260503200051 79 98 2.0 8.0 0.00 0.00 0.00 47 1012.9
20260503194547 78 0 0.0 5.0 0.00 0.00 0.00 48 1013.1
20260503193051 77 119 1.0 6.0 0.00 0.00 0.00 49 1013.3
20260503191545 77 175 1.0 7.0 0.00 0.00 0.00 50 1013.4
20260503190050 76 180 3.0 7.0 0.00 0.00 0.00 48 1013.6
20260503184558 76 120 1.0 6.0 0.00 0.00 0.00 51 1013.7
20260503183047 75 60 1.0 4.0 0.00 0.00 0.00 53 1013.9
20260503181547 74 80 1.0 6.0 0.00 0.00 0.00 55 1013.9
20260503180104 73 117 1.0 7.0 0.00 0.00 0.00 55 1014.0
20260503174546 72 80 3.0 10.0 0.00 0.00 0.00 57 1014.1
20260503173102 71 81 2.0 7.0 0.00 0.00 0.00 57 1014.2
20260503171554 70 128 1.0 5.0 0.00 0.00 0.00 60 1014.3
20260503170108 69 160 2.0 7.0 0.00 0.00 0.00 60 1014.4
20260503160113 65 103 0.0 3.0 0.00 0.00 0.00 69 1014.6
20260503081551 51 0 0.0 0.0 0.00 0.00 0.00 84 1014.7
20260503071553 53 0 0.0 0.0 0.00 0.00 0.00 82 1014.7
20260503060109 56 0 0.0 0.0 0.00 0.00 0.00 78 1014.7
20260503054550 56 0 0.0 0.0 0.00 0.00 0.00 77 1014.6
20260503053052 57 0 0.0 0.0 0.00 0.00 0.00 75 1014.7
20260503051548 58 0 0.0 1.0 0.00 0.00 0.00 74 1014.6
20260503050048 59 0 0.0 0.0 0.00 0.00 0.00 73 1014.4
20260503044548 60 0 0.0 0.0 0.00 0.00 0.00 72 1014.3
20260503043051 61 0 0.0 2.0 0.00 0.00 0.00 70 1014.3
20260503041547 62 0 0.0 0.0 0.00 0.00 0.00 66 1014.0
20260503040057 64 0 0.0 1.0 0.00 0.00 0.00 63 1013.8
20260503034550 65 0 0.0 4.0 0.00 0.00 0.00 60 1013.6
20260503033049 67 0 0.0 4.0 0.00 0.00 0.00 58 1013.6
20260503031547 68 89 1.0 7.0 0.00 0.00 0.00 56 1013.5
20260503030050 69 82 2.0 4.0 0.00 0.00 0.00 56 1013.4
20260503024546 70 0 1.0 8.0 0.00 0.00 0.00 55 1013.2
20260503023056 70 76 2.0 7.0 0.00 0.00 0.00 54 1013.1
20260503021555 71 112 2.0 7.0 0.00 0.00 0.00 53 1013.0
20260503020056 72 163 1.0 8.0 0.00 0.00 0.00 53 1013.0
20260503014547 73 31 1.0 5.0 0.00 0.00 0.00 52 1012.9
20260503013045 73 123 1.0 5.0 0.00 0.00 0.00 52 1013.0
20260503011546 73 57 2.0 5.0 0.00 0.00 0.00 51 1012.9
20260503010050 74 122 1.0 7.0 0.00 0.00 0.00 51 1013.0
20260503004558 74 74 3.0 8.0 0.00 0.00 0.00 50 1013.1
20260503003102 74 67 2.0 9.0 0.00 0.00 0.00 52 1013.2
20260503001603 75 55 1.0 8.0 0.00 0.00 0.00 51 1013.1
20260503000046 75 59 2.0 9.0 0.00 0.00 0.00 51 1013.2
20260502234552 75 12 2.0 7.0 0.00 0.00 0.00 51 1013.6
20260502233051 75 21 2.0 9.0 0.00 0.00 0.00 53 1013.9
20260502231553 76 74 3.0 9.0 0.00 0.00 0.00 52 1014.0
20260502230050 75 47 3.0 9.0 0.00 0.00 0.00 52 1014.2
20260502224547 76 191 1.0 8.0 0.00 0.00 0.00 53 1014.2